Regional Weather Roundup
Issued by NWS Cleveland, OH

Home | Current Version | Previous Version | Graphics & Text | Print | Product List | Glossary On
Versions: 1 2 3 4 5 6 7 8 9 10 11 12 13 14 15 16 17 18 19 20 21 22 23 24 25 26 27 28 29 30 31 32 33 34 35 36 37 38 39 40 41 42 43 44 45 46 47 48 49 50
000
ASUS41 KCLE 170810
RWRCLE
OHIO REGIONAL WEATHER ROUNDUP
NATIONAL WEATHER SERVICE WILMINGTON, OH
400 AM EDT THU APR 17 2014

NOTE: "FAIR" INDICATES FEW OR NO CLOUDS BELOW 12,000 FEET WITH NO
SIGNIFICANT WEATHER AND/OR OBSTRUCTIONS TO VISIBILITY.

OHZ001>008-015>018-024>027-034-035-043-044-170900-
   NORTHWEST OHIO

CITY           SKY/WX    TMP DP  RH WIND       PRES   REMARKS
DEFIANCE       CLEAR     33  26  75 E7        30.30S WCI  27
FINDLAY        CLEAR     34  24  67 E6        30.29S WCI  29
TOLEDO EXPRESS CLEAR     33  23  66 E6        30.31F WCI  28
TOLEDO METCALF CLEAR     33  23  66 E6        30.33F WCI  28
LIMA           CLEAR     35  24  64 SE10      30.27F WCI  27
$$

OHZ009>014-019>023-028>033-038-089-170900-
   NORTHEAST OHIO

CITY           SKY/WX    TMP DP  RH WIND       PRES   REMARKS
CLE-HOPKINS    MOCLDY    40  18  41 SE13      30.36S
CLE-LAKEFRONT  PTCLDY    40  18  41 SE13      30.33F
CUY CO. ARPT   NOT AVBL
LORAIN-ELYRIA  MOCLDY    38  21  50 SE9       30.34S
ASHTABULA      CLEAR     36  17  46 SE9       30.38F
AKRON-CANTON   MOCLDY    36  18  48 SE5       30.34F
WOOSTER        PTCLDY    35  21  56 SE13      30.33F WCI  26
MANSFIELD      PTCLDY    36  19  50 SE12      30.30S
YOUNGSTOWN     MOCLDY    36  16  44 SE14      30.37S
$$

OHZ042-051>053-060>062-070>072-077>081-170900-
  SOUTHWEST OHIO

CITY           SKY/WX    TMP DP  RH WIND       PRES   REMARKS
CINC-COVINGTON MOCLDY    39  24  55 SE7       30.26R
CINC-LUNKEN    CLEAR     32  29  88 CALM      30.29R
HAMILTON       PTCLDY    37  26  64 CALM      30.28R
DAYTON         PTCLDY    38  23  55 SE10      30.28R
WRIGHT-PAT AFB CLEAR     36  23  58 E6        30.28S
DAYTON GENERAL CLEAR     38  23  55 E9        30.25S
WILMINGTON     CLEAR     34  23  64 E6        30.27R WCI  29
$$

OHZ036-037-039>041-045>050-054>059-063>069-073>076-082>088-170900-
  CENTRAL AND SOUTHEAST OHIO

CITY           SKY/WX    TMP DP  RH WIND       PRES   REMARKS
COLUMBUS       MOCLDY    40  18  41 SE9       30.30S
OSU AIRPORT    PTCLDY    38  19  46 SE8       30.30S
BOLTON FIELD   PTCLDY    35  23  62 MISG      30.30R
RICKENBACK AFB PTCLDY    37  20  51 E3        30.30S
NEWARK         MOCLDY    35  19  52 CALM      30.31S
MARION         CLEAR     36  20  52 SE10      30.30S
LANCASTER      PTCLDY    36  20  52 SE7       30.31S
ZANESVILLE     MOCLDY    35  19  52 SE7       30.33S WCI  29
NEW PHILLY     PTCLDY    38  18  44 SE9       30.36S
$$



USA.gov is the U.S. government's official web portal to all federal, state and local government web resources and services.